Starlink 31530

operational
NORAD ID: 59322 Int'l Des: 2024-057 Owner: SPXS Country: US Constellation: starlink
LEOCIRCULAR

关于 Starlink 31530

正在加载描述...

实时位置

正在加载3D地球...

即将过境

高度历史

Altitude vs Time

uPlot chart will show altitude changes over time

两行轨道根数

1 59322U 24057C 25352.20456877 -.00001418 00000-0 -42015-4 0 9997
2 59322 43.0010 287.5524 0000883 263.7990 96.2761 15.27574628 97373
Epoch: Dec 18, 2025 • Age: 10 hours

当前状态

高度 484.9 km
速度 7.63 km/s
星下点 34.56°N, 107.48°E
发射日期 Mar 25, 2024
运行时间 1.7 years
类型 internet

技术详情

分类 Payload
质量 730.00 kg
干质量 700.00 kg
总质量 730.00 kg
长度 0.30 m
直径 4.10 m
跨度 29.00 m
形状 Box + pan
制造商 SPXS
平台类型 Starlink V2M
阶段状态 In Orbit
所有者/国家 SPXS/US

大型星座

Loading constellations...